Weather History for YFRT - February, 2013

Change the Weather History Date:

Tuesday, February 26, 2013

  Actual Average Record
Temperature  
Mean Temperature 72 °F -  
Max Temperature 79 °F - - ()
Min Temperature 64 °F - - ()
Cooling Degree Days 6    
Growing Degree Days 22 (Base 50)    
Moisture  
Dew Point 66 °F    
Average Humidity 83    
Maximum Humidity 100    
Minimum Humidity 43    
Precipitation  
Precipitation 0.00 in - - ()
Sea Level Pressure  
Sea Level Pressure 29.93 in    
Wind  
Wind Speed 11 mph ()    
Max Wind Speed 17 mph    
Max Gust Speed -    
T = Trace of Precipitation, MM = Missing Value Source: Averaged Metar Reports

Daily Weather History Graph

Daily Weather History Graph

Search for Another Location

Airport or City:

Trip Planner

Search our weather history database for the weather conditions in past years. The results will help you decide how hot, cold, wet, or windy it might be!

Date:

Astronomy

Feb. 26, 2013 Rise Set
Actual Time 5:15 AM AWST 6:05 PM AWST
Civil Twilight 4:50 AM AWST 6:29 PM AWST
Nautical Twilight 4:21 AM AWST 6:58 PM AWST
Astronomical Twilight 3:51 AM AWST 7:28 PM AWST
Moon 6:03 PM AWST (2/26) 5:24 AM AWST (2/26)
Length of Visible Light 13h 38m
Length of Day
12h 49m
Full, 100% of the Moon is Illuminated
Feb 26
Full
Mar 5
Last Quarter
Mar 12
New
Mar 20
First Quarter
Mar 27
Full

Hourly Weather History & Observations

Time (AWST) Temp. Dew Point Humidity Pressure Visibility Wind Dir Wind Speed Gust Speed Precip Events Conditions
12:00 AM 67 °F 65 °F 90% 29.94 in - East 16.1 mph - -  
12:00 AM 68.0 °F 64.4 °F 88% 29.95 in - East 16.1 mph - N/A   Unknown
1:00 AM 66.2 °F 66.2 °F 100% 29.92 in - ESE 17.3 mph - N/A   Unknown
2:00 AM 65 °F 65 °F 100% 29.91 in - ESE 11.5 mph - -  
2:00 AM 66.2 °F 64.4 °F 94% 29.92 in - ESE 11.5 mph - N/A   Unknown
3:00 AM 65 °F 65 °F 99% 29.91 in - SE 9.2 mph - -  
3:00 AM 64.4 °F 64.4 °F 100% 29.92 in - SE 9.2 mph - N/A   Unknown
4:00 AM 66.2 °F 64.4 °F 94% 29.92 in - ESE 12.7 mph - N/A   Unknown
5:00 AM 65 °F 65 °F 99% 29.90 in - SE 13.8 mph - -  
5:00 AM 64.4 °F 64.4 °F 100% 29.92 in - SE 13.8 mph - N/A   Unknown
6:00 AM 65 °F 65 °F 100% 29.93 in - ESE 12.7 mph - -  
6:00 AM 66.2 °F 66.2 °F 100% 29.95 in - ESE 12.7 mph - N/A   Unknown
7:00 AM 66.2 °F 66.2 °F 100% 29.95 in - SE 12.7 mph - N/A   Unknown
8:00 AM 68 °F 68 °F 98% 29.93 in - ESE 17.3 mph - -  
8:00 AM 68.0 °F 68.0 °F 100% 29.95 in - ESE 17.3 mph - N/A   Unknown
9:00 AM 71 °F 70 °F 95% 29.94 in - ESE 11.5 mph - -  
9:00 AM 69.8 °F 69.8 °F 100% 29.95 in - ESE 11.5 mph - N/A   Unknown
10:00 AM 73.4 °F 64.4 °F 73% 29.95 in - East 13.8 mph - N/A   Unknown
11:00 AM 76 °F 62 °F 52% 29.92 in - ESE 11.5 mph - -  
11:00 AM 75.2 °F 60.8 °F 61% 29.95 in - ESE 11.5 mph - N/A   Unknown
12:00 PM 78 °F 60 °F 43% 29.91 in - East 9.2 mph - -  
12:00 PM 78.8 °F 59.0 °F 51% 29.92 in - East 9.2 mph - N/A   Unknown
1:00 PM 77.0 °F 62.6 °F 61% 29.92 in - NE 6.9 mph - N/A   Unknown
2:00 PM 76 °F 64 °F 57% 29.89 in - North 8.1 mph - -  
2:00 PM 75.2 °F 64.4 °F 69% 29.92 in - North 8.1 mph - N/A   Unknown
3:00 PM 76 °F 65 °F 61% 29.88 in - NNE 5.8 mph - -  
3:00 PM 77.0 °F 64.4 °F 65% 29.89 in - NNE 5.8 mph - N/A   Unknown
4:00 PM 77.0 °F 66.2 °F 69% 29.89 in - NNE 8.1 mph - N/A   Unknown
5:00 PM 76 °F 66 °F 63% 29.90 in - NE 8.1 mph - -  
5:00 PM 75.2 °F 66.2 °F 73% 29.92 in - NE 8.1 mph - N/A   Unknown
6:00 PM 75 °F 67 °F 69% 29.91 in - ENE 8.1 mph - -  
6:00 PM 75.2 °F 66.2 °F 73% 29.92 in - ENE 8.1 mph - N/A   Unknown
7:00 PM 75.2 °F 69.8 °F 83% 29.95 in - East 6.9 mph - N/A   Unknown
8:00 PM 74 °F 68 °F 78% 29.95 in - SE 12.7 mph - -  
8:00 PM 73.4 °F 68.0 °F 83% 29.95 in - SE 12.7 mph - N/A   Unknown
9:00 PM 71 °F 69 °F 92% 29.96 in - SSE 15.0 mph - -  
9:00 PM 71.6 °F 69.8 °F 94% 29.98 in - SSE 15.0 mph - N/A   Unknown
10:00 PM 69.8 °F 69.8 °F 100% 29.95 in - SSE 13.8 mph - N/A   Unknown
11:00 PM 69 °F 69 °F 98% 29.94 in - SE 10.4 mph - -  
11:00 PM 69.8 °F 68.0 °F 94% 29.95 in - SE 10.4 mph - N/A   Unknown